AirNav   Duncan Aviation - Near you to keep you flying
 
 1163 users online  

02MI Fairplains Airpark
Greenville, Michigan, USA

GOING TO GREENVILLE?


FAA INFORMATION EFFECTIVE 01 DECEMBER 2022

Location

FAA Identifier: 02MI
Lat/Long: 43-09-25.2100N 085-08-56.1400W
43-09.420167N 085-08.935667W
43.1570028,-85.1489278
(estimated)
Elevation: 850 ft. / 259 m (estimated)
From city: 5 miles E of GREENVILLE, MI
Time zone: UTC -5 (UTC -4 during Daylight Saving Time)
Zip code: 48838

Airport Operations

Airport use: Private use. Permission required prior to landing
Activation date: 07/2004
Control tower: no
ARTCC: CHICAGO CENTER
FSS: LANSING FLIGHT SERVICE STATION
Attendance: UNATNDD
Segmented circle: no

Airport Communications

CTAF: 122.9
WX AWOS-3 at Y70 (14 nm S): 118.9 (616-523-1852)

Nearby radio navigation aids

VOR radial/distance  VOR name  Freq  Var
VIOr039/27.0VICTORY VOR/DME115.9504W
MOPr218/33.2MOUNT PLEASANT VOR/DME110.6005W

Airport Services

Runway Information

Runway 9/27

Dimensions: 2000 x 100 ft. / 610 x 30 m
Surface: turf
RUNWAY 9  RUNWAY 27
Latitude: 43-09.418500N43-09.421833N
Longitude: 085-09.160500W085-08.710833W
Traffic pattern: leftright
Runway heading: 089 true269 true

Airport Ownership and Management from official FAA records

Ownership: Privately-owned
Owner: FAIRPLAINS AIRPARK
3857 DOWNWIND LN
GREENVILLE, MI 48838-8776
Phone 616-890-6400
Manager: RICHARD GRIMES
3857 DOWNWIND LN
GREENVILLE, MI 48838-8776
Phone 616-890-6400

Airport Operational Statistics

Aircraft based on the field: 8
Single engine airplanes: 8
    

Additional Remarks

LCTD 1.65 NM N OF THE IAP FAF TO RWY 28 AT 6D6 ARPT. ACFT ON FNA ARE DSNDG OUT OF 2500 FT MSL. THE MISSED APCH CRS FOR RWY 10 AT 6D6 PASSES 1.5 NM S AT 1340 FT MSL. 6D6 ARPT IS 4.6 NM W, RWY 28 IS 4.31 NM W.
FOR CD CTC GREAT LAKES APCH AT 269-459-3344, WHEN APCH CLSD CTC CHICAGO ARTCC AT 630-906-8921.

Instrument Procedures

There are no published instrument procedures at 02MI.

Some nearby airports with instrument procedures:

6D6 - Greenville Municipal Airport (5 nm W)
Y70 - Ionia County Airport (14 nm S)
13C - Lakeview Airport/Griffith Field (18 nm N)
KAMN - Gratiot Community Airport (22 nm NE)
8D4 - Paul C Miller/Sparta Airport (23 nm W)
 
Loc | Ops | Rwys | IFR | FBO | Links
Com | Nav | Svcs | Stats | Notes
Area around 02MI (Fairplains Airpark)
 
Road maps at: MapQuest Bing Google
 
Aerial photo
WARNING: Photo may not be current or correct
Aerial photo of 02MI (Fairplains Airpark)
Do you have a better or more recent aerial photo of Fairplains Airpark that you would like to share? If so, please send us your photo.

 
Sectional chart

 
Airport distance calculator
Flying to Fairplains Airpark? Find the distance to fly.

From to 02MI

Sunrise and sunset
Times for 04-Dec-2022
 Local
(UTC-5)
 Zulu
(UTC)
Morning civil twilight07:2512:25
Sunrise07:5712:57
Sunset17:0522:05
Evening civil twilight17:3722:37

Current date and time
Zulu (UTC)  04-Dec-2022 18:06:45
Local (UTC-5)  04-Dec-2022 13:06:45
 
METAR
KY70 
14nm S 
041755Z AUTO 23018KT 10SM CLR 02/M06 A3006 RMK AO2 T00201056 10021 21047
KAMN 
22nm NE 
041755Z AUTO 19011G16KT 10SM CLR 03/M06 A3005 RMK AO2 T00311065 10031 21040
KGRR 
23nm SW 
041753Z 24018G27KT 10SM CLR 03/M06 A3008 RMK AO2 PK WND 23029/1709 SLP198 T00281056 10028 21050 58029 PNO
TAF
KGRR 
23nm SW 
041743Z 0418/0518 25016G26KT P6SM SKC FM042300 22011KT P6SM SKC FM051200 22010KT P6SM BKN200 FM051500 20010G20KT P6SM BKN100
NOTAMs
Click for the latest NOTAMs
NOTAMs are issued by the DoD/FAA and will open in a separate window not controlled by AirNav.

 

 
 

Would you like to see your business listed on this page?

 If your business provides an interesting product or service to pilots, flight crews, aircraft, or users of the Fairplains Airpark, you should consider listing it here.  To start the listing process, click on the button below
 
Add a business
 

Other Pages about Fairplains Airpark

Update a link
 
Copyright © AirNav, LLC. All rights reserved. Privacy Policy  Contact